GW4151 Weather Reports


time (UTC)temp
F
wind
direction
speed
knots
gust
knots
rain 1hr
in
rain 24hr
in
rain mn
in
humidity
%
barometer
mb
20260903073248 73 165 0.0 0.0 0.00 0.00 0.00 99 993.3
20260903071749 72 170 0.0 0.0 0.00 0.00 0.00 99 993.5
20260903070245 73 170 0.0 0.0 0.00 0.00 0.00 99 993.4
20260903064744 72 170 0.0 0.0 0.00 0.00 0.00 99 993.3
20260903063243 73 180 0.0 0.0 0.00 0.00 0.00 99 993.4
20260903061740 73 174 0.0 0.0 0.00 0.00 0.00 99 993.2
20260903060235 73 234 0.0 0.0 0.00 0.00 0.00 99 993.4
20260903054732 73 172 0.0 0.0 0.00 0.00 0.00 99 993.3
20260903053230 73 172 0.0 0.0 0.00 0.00 0.00 99 993.2
20260903051728 73 172 0.0 0.0 0.00 0.00 0.00 99 993.1
20260903050224 74 171 0.0 0.0 0.00 0.00 0.00 98 993.2
20260903044723 73 196 0.0 0.0 0.00 0.00 0.00 98 993.0
20260903043220 74 92 0.0 0.0 0.00 0.00 0.00 98 992.9
20260903041717 74 92 0.0 0.0 0.00 0.00 0.00 98 993.0
20260903040213 74 92 0.0 0.0 0.00 0.00 0.00 98 992.9
20260903034710 75 92 0.0 0.0 0.00 0.00 0.00 97 992.9
20260903033207 75 92 0.0 0.0 0.00 0.00 0.00 97 992.8
20260903031705 75 92 0.0 0.0 0.00 0.00 0.00 97 993.2
20260903030202 76 327 0.9 1.7 0.00 0.00 0.00 94 993.0
20260903024700 76 167 0.0 0.9 0.00 0.00 0.00 93 993.0
20260903023155 77 166 0.0 0.9 0.00 0.00 0.00 91 992.9
20260903021655 77 186 0.0 0.9 0.00 0.00 0.00 91 993.0
20260903020150 78 162 0.0 0.9 0.00 0.00 0.00 90 992.5
20260903014648 79 235 0.9 0.9 0.00 0.00 0.00 87 993.0
20260903013148 79 199 0.0 0.0 0.00 0.00 0.00 85 992.8
20260903011646 79 239 0.9 0.9 0.00 0.00 0.00 85 992.6
20260903010146 81 308 1.7 1.7 0.00 0.00 0.00 83 992.3
20260903004642 80 196 0.0 0.0 0.00 0.00 0.00 83 992.2
20260903003140 81 240 0.9 0.9 0.00 0.00 0.00 82 992.3
20260903001636 82 190 1.7 3.5 0.00 0.00 0.00 79 992.1
20260903000131 82 251 2.6 3.5 0.00 0.00 0.00 79 992.3
20260902234631 83 223 3.5 3.5 0.00 0.00 0.00 78 992.1
20260902233131 84 194 1.7 6.1 0.00 0.00 0.00 77 992.4
20260902231630 84 241 1.7 3.5 0.00 0.00 0.00 76 992.3
20260902230130 84 290 3.5 7.0 0.00 0.00 0.00 75 992.4
20260902224629 85 224 1.7 5.2 0.00 0.00 0.00 73 992.5
20260902223126 87 266 3.5 7.0 0.00 0.00 0.00 71 992.4
20260902221624 86 233 2.6 7.0 0.00 0.00 0.00 70 992.6
20260902220121 88 287 1.7 5.2 0.00 0.00 0.00 68 992.5
20260902214619 88 223 2.6 7.8 0.00 0.00 0.00 65 992.5
20260902213118 89 211 5.2 7.8 0.00 0.00 0.00 63 992.2
20260902211618 89 173 5.2 7.8 0.00 0.00 0.00 64 992.5
20260902210114 89 219 3.5 5.2 0.00 0.00 0.00 64 992.5
20260902204614 90 247 2.6 7.0 0.00 0.00 0.00 61 992.7
20260902203110 89 268 6.1 7.8 0.00 0.00 0.00 61 992.6
20260902201609 90 237 3.5 9.6 0.00 0.00 0.00 60 992.9
20260902200106 93 215 2.6 6.1 0.00 0.00 0.00 57 992.6
20260902194605 93 259 4.3 7.8 0.00 0.00 0.00 57 992.5
20260902193102 91 196 2.6 5.2 0.00 0.00 0.00 63 992.9
20260902191601 92 267 3.5 5.2 0.00 0.00 0.00 60 993.0
20260902190058 91 206 4.3 7.0 0.00 0.00 0.00 62 993.3
20260902184556 90 204 3.5 7.0 0.00 0.00 0.00 63 992.9
20260902183056 91 219 4.3 8.7 0.00 0.00 0.00 63 992.8
20260902181556 90 203 3.5 7.0 0.00 0.00 0.00 65 993.1
20260902180051 90 270 0.0 5.2 0.00 0.00 0.00 67 993.5
20260902174548 90 192 1.7 6.1 0.00 0.00 0.00 67 993.6
20260902173044 91 154 1.7 5.2 0.00 0.00 0.00 68 993.7
20260902171541 89 196 2.6 5.2 0.00 0.00 0.00 71 994.1
20260902170039 90 206 3.5 3.5 0.00 0.00 0.00 68 994.1
20260902164534 89 213 1.7 2.6 0.00 0.00 0.00 72 994.1
20260902163033 87 229 1.7 3.5 0.00 0.00 0.00 75 994.2
20260902161529 87 91 3.5 6.1 0.00 0.00 0.00 76 994.0
20260902160027 86 165 1.7 2.6 0.00 0.00 0.00 78 994.1
20260902154526 86 122 1.7 2.6 0.00 0.00 0.00 77 994.0
20260902153027 84 155 1.7 2.6 0.00 0.00 0.00 77 994.3
20260902151526 86 142 1.7 5.2 0.00 0.00 0.00 76 994.1
20260902150021 84 178 0.9 0.9 0.00 0.00 0.00 79 994.2
20260902144519 83 256 2.6 5.2 0.00 0.00 0.00 80 994.5
20260902143016 82 198 1.7 2.6 0.00 0.00 0.00 81 994.3
20260902141512 82 231 3.5 5.2 0.00 0.00 0.00 84 994.5
20260902140009 81 35 1.7 2.6 0.00 0.00 0.00 86 994.7
20260902134505 80 176 1.7 6.1 0.00 0.00 0.00 89 994.9
20260902133001 81 274 2.6 5.2 0.00 0.00 0.00 86 994.6
20260902131458 80 172 0.9 2.6 0.00 0.00 0.00 87 993.7
20260902125954 77 120 1.7 1.7 0.00 0.00 0.00 92 994.0
20260902124454 76 196 0.0 1.7 0.00 0.00 0.00 93 994.1
20260902122949 75 156 0.0 0.0 0.00 0.00 0.00 95 994.5
20260902121447 74 173 0.9 0.9 0.00 0.00 0.00 97 994.2
20260902115943 73 172 0.0 0.0 0.00 0.00 0.00 98 994.6
20260902114443 73 180 0.0 0.0 0.00 0.00 0.00 98 994.6
20260902112939 73 210 0.0 0.9 0.00 0.00 0.00 98 994.6
20260902111440 73 183 0.0 0.0 0.00 0.00 0.00 97 994.6
20260902105937 74 183 0.0 0.0 0.00 0.00 0.00 96 994.2
20260902104434 75 212 0.9 0.9 0.00 0.00 0.00 95 994.3
20260902102930 75 203 0.0 0.9 0.00 0.00 0.00 95 994.0
20260902101429 75 201 0.0 0.9 0.00 0.00 0.00 94 994.2
20260902095924 75 197 0.0 1.7 0.00 0.00 0.00 95 994.3
20260902094420 75 219 0.0 1.7 0.00 0.00 0.00 94 994.1
20260902092920 76 201 0.0 0.0 0.00 0.00 0.00 94 994.3
20260902091417 76 237 0.0 0.0 0.00 0.00 0.00 94 994.5
20260902085912 76 189 0.0 1.7 0.00 0.00 0.00 92 994.4
20260902084411 77 192 0.9 1.7 0.00 0.00 0.00 92 993.8
20260902082907 77 197 0.9 0.9 0.00 0.00 0.00 91 993.7
20260902081407 77 211 1.7 5.2 0.00 0.00 0.00 91 993.7
20260902075903 78 234 1.7 3.5 0.00 0.00 0.00 90 993.5
20260902074402 78 209 0.9 3.5 0.00 0.00 0.00 90 993.8